MRN77 LFIP-LESO

Flight info

Callsign MRN77
Flight time 0h 45m
Altitude 14000
Route PERDU DCT BAGAS L176 SSN
Aircraft C208/L-SDFGR/C

Departure

Time 2026-05-05 15:12
Airport Altiport de Peyresourde Balestas (LFIP)

Arrival

Time 2026-05-05 15:57
Airport San Sebastián Airport (LESO)
Time Latitude Longitude Altitude Speed Heading
2026-05-05 15:03 42.79621 0.43951 5280 ft 0 kts 272°
2026-05-05 15:09 42.79625 0.43946 5280 ft 4 kts 340°
2026-05-05 15:09 42.79659 0.43934 5277 ft 2 kts 268°
2026-05-05 15:09 42.79659 0.43933 5277 ft 0 kts 271°
2026-05-05 15:11 42.79659 0.43915 5276 ft 15 kts 276°
2026-05-05 15:11 42.79693 0.43350 5112 ft 94 kts 276°
2026-05-05 15:11 42.79779 0.42452 5275 ft 104 kts 276°
2026-05-05 15:11 42.79877 0.41382 5443 ft 115 kts 275°
2026-05-05 15:12 42.79931 0.40320 5744 ft 113 kts 272°
2026-05-05 15:12 42.79983 0.39198 5926 ft 125 kts 271°
2026-05-05 15:12 42.80031 0.37974 6122 ft 133 kts 272°
2026-05-05 15:12 42.80072 0.36686 6325 ft 139 kts 268°
2026-05-05 15:13 42.80029 0.35352 6514 ft 143 kts 262°
2026-05-05 15:13 42.79817 0.34015 6705 ft 146 kts 252°
2026-05-05 15:13 42.79501 0.32713 6978 ft 143 kts 246°
2026-05-05 15:13 42.79100 0.31492 7253 ft 140 kts 244°
2026-05-05 15:14 42.78675 0.30302 7519 ft 140 kts 245°
2026-05-05 15:14 42.78292 0.29096 7761 ft 138 kts 247°
2026-05-05 15:14 42.77940 0.27892 8007 ft 136 kts 249°
2026-05-05 15:14 42.77622 0.26686 8271 ft 135 kts 250°
2026-05-05 15:15 42.77317 0.25492 8515 ft 133 kts 250°
2026-05-05 15:15 42.77020 0.24307 8792 ft 132 kts 250°
2026-05-05 15:15 42.76728 0.23121 9042 ft 132 kts 250°
2026-05-05 15:15 42.76444 0.21953 9283 ft 128 kts 250°
2026-05-05 15:16 42.76161 0.20802 9554 ft 125 kts 250°
2026-05-05 15:16 42.75879 0.19660 9804 ft 130 kts 251°
2026-05-05 15:16 42.75594 0.18498 9995 ft 132 kts 250°
2026-05-05 15:16 42.75308 0.17298 10206 ft 135 kts 250°
2026-05-05 15:17 42.74979 0.16067 10412 ft 138 kts 248°
2026-05-05 15:17 42.74621 0.14856 10577 ft 138 kts 247°
2026-05-05 15:17 42.74280 0.13650 10745 ft 136 kts 253°
2026-05-05 15:17 42.74143 0.12388 10950 ft 135 kts 262°
2026-05-05 15:18 42.74049 0.11106 11193 ft 138 kts 262°
2026-05-05 15:18 42.74001 0.10237 11330 ft 141 kts 263°
2026-05-05 15:18 42.74110 0.08444 11533 ft 145 kts 281°
2026-05-05 15:18 42.74308 0.07575 11630 ft 145 kts 283°
2026-05-05 15:19 42.74615 0.06267 11809 ft 145 kts 282°
2026-05-05 15:19 42.74891 0.04950 11995 ft 144 kts 281°
2026-05-05 15:19 42.75147 0.03632 12158 ft 144 kts 279°
2026-05-05 15:19 42.75388 0.02330 12329 ft 141 kts 279°
2026-05-05 15:20 42.75615 0.01032 12545 ft 142 kts 278°
2026-05-05 15:20 42.75843 -0.00282 12748 ft 144 kts 278°
2026-05-05 15:20 42.76074 -0.01609 12932 ft 145 kts 278°
2026-05-05 15:20 42.76302 -0.02939 13102 ft 144 kts 278°
2026-05-05 15:21 42.76531 -0.04264 13278 ft 143 kts 278°
2026-05-05 15:21 42.76759 -0.05576 13477 ft 142 kts 277°
2026-05-05 15:21 42.76983 -0.06879 13627 ft 142 kts 278°
2026-05-05 15:21 42.77210 -0.08204 13768 ft 145 kts 277°
2026-05-05 15:22 42.77439 -0.09556 13868 ft 149 kts 278°
2026-05-05 15:22 42.77678 -0.10961 13924 ft 156 kts 278°
2026-05-05 15:22 42.77933 -0.12445 13948 ft 165 kts 278°
2026-05-05 15:22 42.78197 -0.13987 13951 ft 170 kts 278°
2026-05-05 15:23 42.78467 -0.15575 13934 ft 173 kts 278°
2026-05-05 15:23 42.78744 -0.17184 13951 ft 175 kts 279°
2026-05-05 15:23 42.79024 -0.18810 13951 ft 177 kts 279°
2026-05-05 15:23 42.79306 -0.20452 13964 ft 179 kts 279°
2026-05-05 15:24 42.79591 -0.22120 13967 ft 182 kts 279°
2026-05-05 15:24 42.79879 -0.23803 13949 ft 183 kts 279°
2026-05-05 15:24 42.80164 -0.25478 13939 ft 181 kts 279°
2026-05-05 15:24 42.80439 -0.27135 13942 ft 178 kts 279°
2026-05-05 15:25 42.80715 -0.28784 13951 ft 179 kts 279°
2026-05-05 15:25 42.80992 -0.30429 13953 ft 178 kts 279°
2026-05-05 15:25 42.81268 -0.32072 13960 ft 179 kts 279°
2026-05-05 15:25 42.81546 -0.33726 13966 ft 180 kts 279°
2026-05-05 15:26 42.81829 -0.35408 13920 ft 178 kts 279°
2026-05-05 15:26 42.82112 -0.37037 13927 ft 175 kts 279°
2026-05-05 15:26 42.82384 -0.38659 13963 ft 177 kts 279°
2026-05-05 15:26 42.82654 -0.40299 13957 ft 178 kts 279°
2026-05-05 15:27 42.82930 -0.41942 13952 ft 178 kts 279°
2026-05-05 15:27 42.83205 -0.43586 13945 ft 178 kts 279°
2026-05-05 15:27 42.83481 -0.45222 13958 ft 177 kts 279°
2026-05-05 15:27 42.83758 -0.46862 13959 ft 178 kts 279°
2026-05-05 15:28 42.84034 -0.48512 13950 ft 179 kts 279°
2026-05-05 15:28 42.84310 -0.50159 13943 ft 178 kts 279°
2026-05-05 15:28 42.84586 -0.51796 13944 ft 177 kts 279°
2026-05-05 15:28 42.84861 -0.53429 13958 ft 177 kts 280°
2026-05-05 15:29 42.85136 -0.55078 13970 ft 180 kts 279°
2026-05-05 15:29 42.85413 -0.56742 13951 ft 180 kts 279°
2026-05-05 15:29 42.85690 -0.58410 13954 ft 181 kts 280°
2026-05-05 15:29 42.85968 -0.60081 13941 ft 180 kts 280°
2026-05-05 15:30 42.86245 -0.61746 13942 ft 180 kts 280°
2026-05-05 15:30 42.86520 -0.63401 13946 ft 179 kts 280°
2026-05-05 15:30 42.86797 -0.65054 13950 ft 179 kts 280°
2026-05-05 15:30 42.87071 -0.66704 13939 ft 178 kts 280°
2026-05-05 15:31 42.87344 -0.68348 13956 ft 178 kts 280°
2026-05-05 15:31 42.87619 -0.70002 13953 ft 179 kts 280°
2026-05-05 15:31 42.87893 -0.71659 13965 ft 180 kts 280°
2026-05-05 15:31 42.88169 -0.73323 13948 ft 180 kts 280°
2026-05-05 15:32 42.88444 -0.74976 13950 ft 178 kts 280°
2026-05-05 15:32 42.88717 -0.76628 13972 ft 180 kts 280°
2026-05-05 15:32 42.88991 -0.78301 13970 ft 181 kts 280°
2026-05-05 15:32 42.89267 -0.79980 13964 ft 182 kts 281°
2026-05-05 15:33 42.89546 -0.81666 13959 ft 182 kts 281°
2026-05-05 15:33 42.89821 -0.83344 13962 ft 181 kts 281°
2026-05-05 15:33 42.90097 -0.85024 13967 ft 182 kts 281°
2026-05-05 15:33 42.90374 -0.86707 13964 ft 182 kts 281°
2026-05-05 15:34 42.90650 -0.88392 13967 ft 182 kts 281°
2026-05-05 15:34 42.90926 -0.90076 13959 ft 182 kts 281°
2026-05-05 15:34 42.91201 -0.91757 13964 ft 181 kts 281°
2026-05-05 15:34 42.91476 -0.93432 13962 ft 181 kts 281°
2026-05-05 15:35 42.91749 -0.95101 13963 ft 180 kts 281°
2026-05-05 15:35 42.92021 -0.96765 13973 ft 180 kts 281°
2026-05-05 15:35 42.92291 -0.98431 13973 ft 180 kts 281°
2026-05-05 15:35 42.92563 -1.00099 13975 ft 180 kts 281°
2026-05-05 15:36 42.92835 -1.01774 13973 ft 181 kts 281°
2026-05-05 15:36 42.93107 -1.03447 13975 ft 181 kts 281°
2026-05-05 15:36 42.93380 -1.05117 13974 ft 180 kts 281°
2026-05-05 15:36 42.93651 -1.06786 13977 ft 180 kts 281°
2026-05-05 15:37 42.93921 -1.08456 13975 ft 180 kts 281°
2026-05-05 15:37 42.94096 -1.09536 13977 ft 180 kts 281°
2026-05-05 15:37 42.94365 -1.11209 13976 ft 180 kts 281°
2026-05-05 15:37 42.94636 -1.12880 13981 ft 180 kts 281°
2026-05-05 15:38 42.94906 -1.14553 13982 ft 181 kts 281°
2026-05-05 15:38 42.95178 -1.16227 13981 ft 181 kts 282°
2026-05-05 15:38 42.95790 -1.17706 13974 ft 185 kts 315°
2026-05-05 15:38 42.96861 -1.18735 13982 ft 186 kts 323°
2026-05-05 15:39 42.97945 -1.19658 13987 ft 186 kts 324°
2026-05-05 15:39 42.99060 -1.20589 13790 ft 187 kts 324°
2026-05-05 15:39 43.00176 -1.21523 13552 ft 184 kts 324°
2026-05-05 15:39 43.01248 -1.22431 13312 ft 183 kts 324°
2026-05-05 15:40 43.02325 -1.23350 13080 ft 182 kts 324°
2026-05-05 15:40 43.03401 -1.24274 12841 ft 184 kts 324°
2026-05-05 15:40 43.04506 -1.25221 12598 ft 186 kts 324°
2026-05-05 15:40 43.05606 -1.26162 12357 ft 187 kts 324°
2026-05-05 15:41 43.06709 -1.27105 12121 ft 187 kts 324°
2026-05-05 15:41 43.07814 -1.28060 11914 ft 188 kts 324°
2026-05-05 15:41 43.08923 -1.29023 11664 ft 188 kts 324°
2026-05-05 15:41 43.10006 -1.29965 11407 ft 186 kts 324°
2026-05-05 15:42 43.11107 -1.30920 11141 ft 184 kts 324°
2026-05-05 15:42 43.12182 -1.31853 10874 ft 182 kts 324°
2026-05-05 15:42 43.13248 -1.32780 10628 ft 181 kts 324°
2026-05-05 15:42 43.14310 -1.33704 10387 ft 180 kts 324°
2026-05-05 15:43 43.15371 -1.34627 10162 ft 181 kts 324°
2026-05-05 15:43 43.16433 -1.35555 9925 ft 181 kts 324°
2026-05-05 15:43 43.17494 -1.36483 9656 ft 180 kts 324°
2026-05-05 15:43 43.18551 -1.37401 9383 ft 179 kts 324°
2026-05-05 15:44 43.19600 -1.38317 9105 ft 178 kts 324°
2026-05-05 15:44 43.20643 -1.39226 8850 ft 178 kts 324°
2026-05-05 15:44 43.21685 -1.40134 8598 ft 177 kts 324°
2026-05-05 15:44 43.22723 -1.41044 8337 ft 177 kts 325°
2026-05-05 15:45 43.23759 -1.41948 8082 ft 176 kts 324°
2026-05-05 15:45 43.24793 -1.42850 7816 ft 175 kts 325°
2026-05-05 15:45 43.25820 -1.43746 7568 ft 174 kts 324°
2026-05-05 15:45 43.26838 -1.44638 7339 ft 173 kts 324°
2026-05-05 15:46 43.27850 -1.45525 7126 ft 172 kts 324°
2026-05-05 15:46 43.28858 -1.46409 6906 ft 172 kts 324°
2026-05-05 15:46 43.29864 -1.47287 6690 ft 171 kts 324°
2026-05-05 15:46 43.30871 -1.48171 6498 ft 172 kts 324°
2026-05-05 15:47 43.31884 -1.49060 6282 ft 173 kts 324°
2026-05-05 15:47 43.32557 -1.49651 6129 ft 174 kts 324°
2026-05-05 15:47 43.33922 -1.50845 5814 ft 174 kts 324°
2026-05-05 15:47 43.34931 -1.51729 5574 ft 169 kts 324°
2026-05-05 15:48 43.35903 -1.52577 5320 ft 162 kts 324°
2026-05-05 15:48 43.36843 -1.53403 5086 ft 159 kts 323°
2026-05-05 15:48 43.37774 -1.54225 4895 ft 159 kts 324°
2026-05-05 15:48 43.38710 -1.55049 4676 ft 160 kts 323°
2026-05-05 15:49 43.39652 -1.55878 4427 ft 160 kts 323°
2026-05-05 15:49 43.40577 -1.56687 4165 ft 153 kts 323°
2026-05-05 15:49 43.41446 -1.57436 3909 ft 143 kts 323°
2026-05-05 15:49 43.42273 -1.58160 3669 ft 139 kts 322°
2026-05-05 15:50 43.43080 -1.58873 3453 ft 137 kts 322°
2026-05-05 15:50 43.43881 -1.59577 3228 ft 136 kts 321°
2026-05-05 15:50 43.44698 -1.60307 3014 ft 146 kts 321°
2026-05-05 15:50 43.45570 -1.61090 2781 ft 153 kts 321°
2026-05-05 15:51 43.46473 -1.61892 2545 ft 156 kts 321°
2026-05-05 15:51 43.47387 -1.62699 2303 ft 156 kts 320°
2026-05-05 15:51 43.48060 -1.63789 2083 ft 147 kts 285°
2026-05-05 15:51 43.48002 -1.65118 2056 ft 140 kts 249°
2026-05-05 15:52 43.47367 -1.66133 2041 ft 143 kts 222°
2026-05-05 15:52 43.46573 -1.66955 2034 ft 143 kts 223°
2026-05-05 15:52 43.45810 -1.67823 2032 ft 142 kts 225°
2026-05-05 15:52 43.45052 -1.68684 2023 ft 141 kts 224°
2026-05-05 15:53 43.44301 -1.69523 2048 ft 137 kts 224°
2026-05-05 15:53 43.43536 -1.70296 2038 ft 134 kts 219°
2026-05-05 15:53 43.42819 -1.71002 1957 ft 117 kts 225°
2026-05-05 15:53 43.42203 -1.71716 1754 ft 115 kts 226°
2026-05-05 15:54 43.41628 -1.72448 1660 ft 111 kts 226°
2026-05-05 15:54 43.41042 -1.73122 1639 ft 108 kts 225°
2026-05-05 15:54 43.40438 -1.73771 1522 ft 111 kts 224°
2026-05-05 15:54 43.39848 -1.74423 1298 ft 102 kts 224°
2026-05-05 15:55 43.39326 -1.75017 991 ft 93 kts 224°
2026-05-05 15:55 43.39006 -1.75397 857 ft 87 kts 221°
2026-05-05 15:55 43.38396 -1.76067 661 ft 85 kts 219°
2026-05-05 15:55 43.38077 -1.76397 579 ft 84 kts 218°
2026-05-05 15:56 43.37612 -1.76891 441 ft 85 kts 219°
2026-05-05 15:56 43.37160 -1.77397 322 ft 79 kts 220°
2026-05-05 15:56 43.36753 -1.77842 197 ft 72 kts 221°
2026-05-05 15:56 43.36365 -1.78270 99 ft 71 kts 220°
2026-05-05 15:57 43.35998 -1.78669 21 ft 60 kts 222°
2026-05-05 15:57 43.35732 -1.78963 17 ft 25 kts 214°
2026-05-05 15:57 43.35710 -1.79015 17 ft 3 kts 287°
2026-05-05 15:57 43.35713 -1.79025 17 ft 3 kts 295°
2026-05-05 15:58 43.35741 -1.79080 16 ft 8 kts 329°
2026-05-05 15:58 43.35774 -1.79065 16 ft 0 kts 38°